Location: Wingville
(42.9917°N, 90.4915°W)
Time: 20:44:55
(UTC+00:00)

Cosmos 1743 Rocket - Pass Details

Date: 08 December 2022
Orbit: 603 x 632 km, 82.6° (Epoch: 05 February)

Event Time Altitude Azimuth Distance (km) Brightness Sun altitude
Rises 00:00:36 0° 353° (N) 2,925 6.9 -16.5°
Reaches altitude 10° 00:02:50 10° 355° (N) 2,017 6.1 -16.9°
Maximum altitude 00:07:19 77° 81° (E) 654 3.5 -17.7°
Drops below altitude 10° 00:11:47 10° 168° (SSE) 2,008 6.2 -18.4°
Sets 00:14:01 0° 170° (S) 2,912 7.1 -18.8°
